This is the latest recevied weather packets stored in our database for station/object WD9EKA. If no packets are shown the sender has not sent any weather packets the latest 10 day(s).
| Time | Temp. | Humidity | Pressure | Rain* | Wind** | Luminosity | Snow |
|---|---|---|---|---|---|---|---|
| 1787619234 | 17.22° C | 95% | 1012.9 hPa | 0 mm | - | - | - |
| 1787618914 | 17.78° C | 94% | 1012.7 hPa | 0 mm | - | - | - |
| 1787618614 | 17.78° C | 94% | 1012.7 hPa | 0 mm | - | - | - |
| 1787618253 | 18.33° C | 93% | 1012.6 hPa | 0 mm | - | - | - |
| 1787617894 | 18.89° C | 92% | 1012.6 hPa | 0 mm | - | - | - |
| 1787617533 | 19.44° C | 90% | 1012.7 hPa | 0 mm | - | - | - |
| 1787617174 | 20° C | 87% | 1012.6 hPa | 0 mm | - | - | - |
| 1787616814 | 20.56° C | 84% | 1012.4 hPa | 0 mm | - | - | - |
| 1787616454 | 21.67° C | 83% | 1012.5 hPa | 0 mm | - | - | - |
| 1787616093 | 22.22° C | 82% | 1012.5 hPa | 0 mm | - | - | - |
| 1787615426 | 21.67° C | 82% | 1012.5 hPa | 0 mm | - | - | - |
| 1787615107 | 22.22° C | 82% | 1012.5 hPa | 0 mm | - | - | - |
| 1787614787 | 22.22° C | 81% | 1012.5 hPa | 0 mm | - | - | - |
| 1787614466 | 22.22° C | 79% | 1012.7 hPa | 0 mm | - | - | - |
| 1787614147 | 22.22° C | 81% | 1012.8 hPa | 0 mm | - | - | - |
| 1787613826 | 22.22° C | 83% | 1012.5 hPa | 0 mm | - | - | - |
| 1787613513 | 22.22° C | 81% | 1012.7 hPa | 0 mm | - | - | - |
| 1787613202 | 22.78° C | 80% | 1012.6 hPa | 0 mm | - | - | - |
| 1787612563 | 23.33° C | 76% | 1012.6 hPa | 0 mm | - | - | - |
| 1787612242 | 23.89° C | 73% | 1012.7 hPa | 0 mm | - | - | - |
| 1787611923 | 24.44° C | 72% | 1012.3 hPa | 0 mm | - | - | - |
| 1787611602 | 25° C | 70% | 1012.4 hPa | 0 mm | - | - | - |
| 1787611282 | 25.56° C | 69% | 1012.7 hPa | 0 mm | - | - | - |
| 1787610963 | 25.56° C | 74% | 1012.7 hPa | 0 mm | - | - | - |
| 1787610643 | 25° C | 73% | 1012.8 hPa | 0 mm | - | - | - |
* Rain latest hour (hover to see other rain measurements)
** Current wind speed in m/s (hover to see current wind gust speed)